CW4591 Weather Reports


Display with metric or nautical units.
time (UTC)temp
F
wind
direction
speed
MPH
gust
MPH
rain 1hr
in
rain 24hr
in
rain mn
in
humidity
%
barometer
mb
20260904174607 48 313 0.0 5.0 0.00 0.00 0.00 84 1015.1
20260904173114 47 170 1.0 7.0 0.00 0.00 0.00 87 1014.9
20260904171557 45 135 1.0 4.0 0.00 0.00 0.00 89 1015.0
20260904170101 45 256 0.0 0.0 0.00 0.00 0.00 88 1015.2
20260904164547 44 257 0.0 0.0 0.00 0.00 0.00 89 1015.2
20260904163047 44 256 0.0 0.0 0.00 0.00 0.00 89 1015.6
20260904161545 43 256 0.0 0.0 0.00 0.00 0.00 90 1015.8
20260904160046 43 256 0.0 0.0 0.00 0.00 0.00 90 1016.1
20260904154544 42 256 0.0 0.0 0.00 0.00 0.00 91 1016.1
20260904153054 42 257 0.0 0.0 0.00 0.00 0.00 91 1016.0
20260904151547 42 256 0.0 0.0 0.00 0.00 0.00 90 1015.7
20260904150050 42 256 0.0 0.0 0.00 0.00 0.00 89 1015.9
20260904144546 42 257 0.0 0.0 0.00 0.00 0.00 89 1015.7
20260904143040 42 359 0.0 0.0 0.00 0.00 0.00 89 1015.9
20260904141540 42 256 0.0 0.0 0.00 0.00 0.00 89 1016.1
20260904140039 42 256 0.0 0.0 0.00 0.00 0.00 89 1016.1
20260904134537 42 256 0.0 0.0 0.00 0.00 0.00 89 1016.0
20260904133035 42 256 0.0 0.0 0.00 0.00 0.00 88 1015.8
20260904131533 42 256 0.0 0.0 0.00 0.00 0.00 89 1015.7
20260904130035 42 257 0.0 0.0 0.00 0.00 0.00 88 1015.5
20260904124531 43 257 0.0 0.0 0.00 0.00 0.00 88 1015.5
20260904123029 43 256 0.0 0.0 0.00 0.00 0.00 87 1015.4
20260904121528 43 256 0.0 0.0 0.00 0.00 0.00 87 1015.4
20260904120028 43 359 0.0 0.0 0.00 0.00 0.00 86 1015.3
20260904114527 43 256 0.0 0.0 0.00 0.00 0.00 85 1015.5
20260904113036 43 359 0.0 0.0 0.00 0.00 0.00 85 1015.4
20260904111524 43 256 0.0 3.0 0.00 0.00 0.00 84 1015.4
20260904110023 44 257 0.0 0.0 0.00 0.00 0.00 84 1015.2
20260904104523 44 256 0.0 5.0 0.00 0.00 0.00 83 1015.3
20260904103020 44 280 0.0 4.0 0.00 0.00 0.00 84 1015.1
20260904101520 43 264 2.0 4.0 0.00 0.00 0.00 86 1015.1
20260904100019 44 264 0.0 0.0 0.00 0.00 0.00 86 1014.9
20260904094516 44 264 0.0 2.0 0.00 0.00 0.00 84 1014.9
20260904093016 44 264 0.0 0.0 0.00 0.00 0.00 84 1014.8
20260904091515 44 264 0.0 0.0 0.00 0.00 0.00 83 1014.7
20260904090014 44 264 0.0 0.0 0.00 0.00 0.00 82 1014.8
20260904084513 44 264 0.0 0.0 0.00 0.00 0.00 83 1015.1
20260904083011 44 264 0.0 0.0 0.00 0.00 0.00 82 1014.7
20260904081509 44 264 0.0 0.0 0.00 0.00 0.00 81 1014.8
20260904080008 44 359 0.0 0.0 0.00 0.00 0.00 81 1014.7
20260904074507 45 264 0.0 0.0 0.00 0.00 0.00 80 1014.9
20260904073007 45 264 0.0 0.0 0.00 0.00 0.00 79 1014.9
20260904071507 45 264 0.0 0.0 0.00 0.00 0.00 78 1015.0
20260904070006 45 264 0.0 2.0 0.00 0.00 0.00 78 1014.9
20260904064505 45 264 0.0 0.0 0.00 0.00 0.00 78 1014.8
20260904063004 45 264 0.0 0.0 0.00 0.00 0.00 78 1015.1
20260904061503 45 264 1.0 3.0 0.00 0.00 0.00 78 1015.0
20260904060003 45 264 0.0 0.0 0.00 0.00 0.00 77 1015.1
20260904054505 46 359 0.0 0.0 0.00 0.00 0.00 75 1015.2
20260904053104 46 264 0.0 3.0 0.00 0.00 0.00 74 1015.1
20260904051606 47 264 0.0 0.0 0.00 0.00 0.00 73 1015.2
20260904050059 47 359 0.0 0.0 0.00 0.00 0.00 72 1015.4
20260904044600 48 264 0.0 0.0 0.00 0.00 0.00 70 1015.2
20260904043114 49 264 0.0 2.0 0.00 0.00 0.00 69 1015.3
20260904041559 50 264 1.0 3.0 0.00 0.00 0.00 66 1015.5
20260904040056 50 263 0.0 3.0 0.00 0.00 0.00 66 1015.3
20260904034555 51 264 0.0 0.0 0.00 0.00 0.00 65 1015.5
20260904033054 52 264 1.0 4.0 0.00 0.00 0.00 63 1015.4
20260904031555 52 222 0.0 3.0 0.00 0.00 0.00 61 1015.5
20260904030053 53 222 1.0 3.0 0.00 0.00 0.00 60 1015.6
20260904024554 53 139 0.0 2.0 0.00 0.00 0.00 60 1015.6
20260904023051 53 139 0.0 1.0 0.00 0.00 0.00 62 1015.7
20260904021555 53 139 0.0 5.0 0.00 0.00 0.00 59 1015.8
20260904020047 53 124 0.0 7.0 0.00 0.00 0.00 60 1016.1
20260904014614 53 87 1.0 6.0 0.00 0.00 0.00 60 1016.1
20260904013051 52 102 1.0 7.0 0.00 0.00 0.00 60 1016.1
20260904011542 52 114 2.0 6.0 0.00 0.00 0.00 58 1016.7
20260904010044 53 74 2.0 7.0 0.00 0.00 0.00 58 1016.9
20260904004540 53 129 1.0 11.0 0.00 0.00 0.00 57 1017.1
20260904003039 53 62 3.0 9.0 0.00 0.00 0.00 56 1016.8
20260904001539 53 120 1.0 8.0 0.00 0.00 0.00 56 1017.0
20260904000113 52 80 2.0 7.0 0.00 0.00 0.00 58 1017.3
20260903234530 51 83 0.0 8.0 0.00 0.00 0.00 59 1017.7
20260903233029 51 104 4.0 9.0 0.00 0.00 0.00 57 1017.9
20260903231528 51 62 2.0 5.0 0.00 0.00 0.00 58 1018.1
20260903230027 50 121 3.0 8.0 0.00 0.00 0.00 58 1018.3
20260903224537 51 137 2.0 8.0 0.00 0.00 0.00 56 1018.5
20260903223023 51 68 3.0 7.0 0.00 0.00 0.00 56 1018.7
20260903221521 50 114 2.0 9.0 0.00 0.00 0.00 57 1018.6
20260903220020 50 83 2.0 8.0 0.00 0.00 0.00 58 1018.9
20260903214525 50 119 2.0 8.0 0.00 0.00 0.00 58 1018.8
20260903213029 49 114 2.0 8.0 0.00 0.00 0.00 55 1019.1
20260903211514 50 153 1.0 8.0 0.00 0.00 0.00 54 1019.4
20260903210013 49 122 3.0 8.0 0.00 0.00 0.00 55 1019.4
20260903204511 48 88 3.0 11.0 0.00 0.00 0.00 57 1019.5
20260903203009 48 116 1.0 12.0 0.00 0.00 0.00 58 1019.6
20260903201509 47 111 2.0 7.0 0.00 0.00 0.00 58 1019.7
20260903200005 47 150 3.0 11.0 0.00 0.00 0.00 60 1019.9
20260903194503 46 116 2.0 10.0 0.00 0.00 0.00 63 1020.1
20260903193059 45 43 2.0 7.0 0.00 0.00 0.00 63 1020.2
20260903191557 44 106 1.0 7.0 0.00 0.00 0.00 67 1020.3
20260903184549 42 135 4.0 10.0 0.00 0.00 0.00 74 1020.3
20260903183045 40 83 1.0 8.0 0.00 0.00 0.00 77 1020.4
20260903181547 39 112 1.0 5.0 0.00 0.00 0.00 81 1020.8
20260903180042 38 100 2.0 8.0 0.00 0.00 0.00 83 1020.7